Погода в Юдинове

Россия / Брянская область     52°39′53″N   33°16′11″E
темп.,
°C
ветер,
м/с
пор.,
м/с
влажн.,
%
обл.,
%
осадки,
мм/ч
давл.,
гПа
погр.,
м
4 марта, чт
чт400:00−1з49860 0.0 1018263
03:00−1зюз511870 0.0 1016283
06:00−4юз511880 0.0 1013259
09:00−3юз613920 0.0 1010386
12:000зюз61110045 0.0 1007521
15:00+1зюз51010072 0.0 1005492
18:00+1з41099100 0.0 1004453
21:000зсз41093100 0.1 1005544
5 марта, пт
пт500:00−1зсз41094100 0.0 1006417
03:00−1ссз3791100 0.0 1007371
06:00−4сз2392100 0.0 100984
09:00−4ссз3489100 0.0 1010195
12:00−1ссз238471 0.0 1011516
15:00−1сз347885 0.0 1012851
18:00−3сз2384100 0.0 101351
21:00−5сз348897 0.0 101579
6 марта, сб
сб600:00−6зсз238724 0.0 101630
03:00−5сз499043 0.0 1017350
06:00−7зсз4108952 0.0 1017407
09:00−6сз7118749 0.0 1018896
12:00−4сз71077100 0.1 10201083
15:00−4сз71072100 0.1 10201255
18:00−5сз4107780 0.0 1021574
21:00−7з378640 0.0 1022178
7 марта, вс
вс700:00−7зюз510830 0.0 1021246
03:00−6юз614801 0.0 1018397
06:00−5юз8177594 0.0 1014658
09:00−3зюз10187897 0.0 10111028
12:00−1зюз111881100 0.1 10081262
15:00+1зюз111877100 0.1 10061449
18:00−1з71396100 0.9 1006789
21:00−3всв0197100 4.1 100699
8 марта, пн
пн800:00−3с4895100 1.9 1005589
03:00−5зюз5139399 2.1 1005439
06:00−6зсз513860 0.0 1006614
09:00−6сз598718 0.0 1009655
12:00−5сз467861 0.0 10111023
15:00−4сз467780 0.1 10121036
18:00−6сз3693100 0.3 1013364
21:00−9сз378683 0.3 1014152